Location: Willow Grove Area
(40.1625°N, 75.1113°W)
Time: 11:03:33
(UTC-05:00)

N. Korean satellite - Visible Passes

Search period start: 23 January 2018 00:00
Search period end: 02 February 2018 00:00
Orbit: 458 x 515 km, 97.2° (Epoch: 23 January)

Date Brightness Start Highest point End Pass type
(mag) Time Alt. Az. Time Alt. Az. Time Alt. Az.
23 Jan 10.2 05:40:15 10° ENE 05:41:12 11° E 05:42:09 10° ESE visible
23 Jan 6.5 17:46:48 10° SSE 17:50:21 65° ENE 17:53:52 10° N visible
24 Jan 9.9 18:58:21 10° SW 19:00:20 14° W 19:02:18 10° WNW visible
25 Jan 7.9 06:24:15 10° NNE 06:27:35 43° E 06:30:54 10° S visible
25 Jan 8.8 18:33:26 10° SSW 18:36:31 27° W 18:39:35 10° NW visible
26 Jan 9.4 06:01:06 10° NE 06:03:49 21° E 06:06:32 10° SSE visible
26 Jan 7.2 18:09:17 10° S 18:12:48 58° W 18:16:16 10° NNW visible
27 Jan 10.3 05:39:07 10° ENE 05:39:58 11° E 05:40:49 10° ESE visible
27 Jan 6.5 17:45:37 10° SSE 17:49:07 63° ENE 17:52:36 10° N visible
28 Jan 9.9 18:57:07 10° SW 18:59:06 14° W 19:01:04 10° WNW visible
29 Jan 8.0 06:23:00 10° NNE 06:26:20 42° E 06:29:41 10° S visible
29 Jan 8.8 18:32:12 10° SSW 18:35:17 28° W 18:38:20 10° NW visible
30 Jan 9.5 05:59:51 10° NE 06:02:33 21° E 06:05:16 10° SE visible
30 Jan 7.1 18:08:04 10° S 18:11:32 60° W 18:14:59 10° NNW visible
31 Jan 10.3 05:37:57 10° ENE 05:38:42 11° E 05:39:28 10° ESE visible
31 Jan 6.5 17:44:24 10° SSE 17:47:52 61° ENE 17:51:18 10° N visible
01 Feb 9.9 18:55:48 10° SW 18:57:49 15° W 18:59:49 10° WNW visible
